{"data":{"norad_id":64145,"epoch":"2026-05-25T00:10:16.913280Z","epoch_age_seconds":77899,"freshness":"FRESH","line1":"1 64145U 25111Y   26145.00714020  .00029933  00000+0  10913-2 0  9993","line2":"2 64145  43.0036   6.9973 0001457 262.2979  97.7707 15.27628049 57133","mean_motion":15.27628049,"eccentricity":0.0001457,"inclination_deg":43.0036,"raan_deg":6.9973,"arg_perigee_deg":262.2979,"mean_anomaly_deg":97.7707,"bstar":0.0010913,"rev_number":5713,"period_min":94.263783709826,"perigee_km":481.90556996727,"apogee_km":483.90487767129,"semimajor_km":6861.0422238193,"source":"CELESTRAK","updated_at":"2026-05-25T13:38:20.300893Z"}}